This is the latest recevied weather packets stored in our database for station/object K4AMF. If no packets are shown the sender has not sent any weather packets the latest 10 day(s).
| Time | Temp. | Humidity | Pressure | Rain* | Wind** | Luminosity | Snow |
|---|---|---|---|---|---|---|---|
| 1778201487 | 29.44° C | 61% | 1012.8 hPa | 0 mm | - | 0 W/m² | - |
| 1778201183 | 29.44° C | 60% | 1013.1 hPa | 0 mm | - | 0 W/m² | - |
| 1778200880 | 29.44° C | 60% | 1012.9 hPa | 0 mm | - | 0 W/m² | - |
| 1778200576 | 29.44° C | 60% | 1012.8 hPa | 0 mm | - | 0 W/m² | - |
| 1778200274 | 29.44° C | 59% | 1012.7 hPa | 0 mm | - | 0 W/m² | - |
| 1778199970 | 29.44° C | 59% | 1012.9 hPa | 0 mm | - | 0 W/m² | - |
| 1778199668 | 30° C | 59% | 1012.8 hPa | 0 mm | - | 0 W/m² | - |
| 1778199363 | 30° C | 58% | 1013 hPa | 0 mm | - | 0 W/m² | - |
| 1778199059 | 30° C | 58% | 1012.9 hPa | 0 mm | - | 0 W/m² | - |
| 1778198755 | 30° C | 57% | 1012.6 hPa | 0 mm | - | 1 W/m² | - |
| 1778198453 | 30.56° C | 56% | 1012.7 hPa | 0 mm | - | 4 W/m² | - |
| 1778198149 | 30.56° C | 56% | 1013 hPa | 0 mm | - | 7 W/m² | - |
| 1778197847 | 30.56° C | 55% | 1012.7 hPa | 0 mm | - | 13 W/m² | - |
| 1778197543 | 30.56° C | 54% | 1012.8 hPa | 0 mm | - | 17 W/m² | - |
| 1778197240 | 30.56° C | 54% | 1012.9 hPa | 0 mm | - | 21 W/m² | - |
| 1778196936 | 31.11° C | 54% | 1012.6 hPa | 0 mm | - | 33 W/m² | - |
| 1778196636 | 31.11° C | 53% | 1012.8 hPa | 0 mm | - | 36 W/m² | - |
| 1778196331 | 31.11° C | 53% | 1012.6 hPa | 0 mm | - | 39 W/m² | - |
| 1778196028 | 31.11° C | 53% | 1012.6 hPa | 0 mm | - | 45 W/m² | - |
| 1778195725 | 31.67° C | 52% | 1012.5 hPa | 0 mm | - | 58 W/m² | - |
| 1778195422 | 31.67° C | 51% | 1012.3 hPa | 0 mm | - | 66 W/m² | - |
| 1778195119 | 31.67° C | 51% | 1012.4 hPa | 0 mm | - | 60 W/m² | - |
| 1778194815 | 31.67° C | 50% | 1012.4 hPa | 0 mm | - | 56 W/m² | - |
| 1778194510 | 31.67° C | 50% | 1012.2 hPa | 0 mm | - | 57 W/m² | - |
| 1778194207 | 31.67° C | 50% | 1012.1 hPa | 0 mm | - | 60 W/m² | - |
* Rain latest hour (hover to see other rain measurements)
** Current wind speed in m/s (hover to see current wind gust speed)